Stations météo

réclame
Mon MeteoGroup
Orange, France (7579): Température de l'air & dewpoint: 05.07.2020 23:00:00 - 11.07.2020 23:00:00 (CEST)Orange, France (7579): Température de l'air 5cm: 05.07.2020 23:00:00 - 11.07.2020 23:00:00 (CEST)Orange, France (7579): Vitesse du vent & gusts: 05.07.2020 23:00:00 - 11.07.2020 23:00:00 (CEST)Orange, France (7579): Direction du vent: 05.07.2020 23:00:00 - 11.07.2020 23:00:00 (CEST)Orange, France (7579): reduced air pressure: 05.07.2020 23:00:00 - 11.07.2020 23:00:00 (CEST)Orange, France (7579): visibility: 05.07.2020 23:00:00 - 11.07.2020 23:00:00 (CEST)Orange, France (7579): Quantités de précipitations: 05.07.2020 23:00:00 - 11.07.2020 23:00:00 (CEST)
Date & Time tt [°C] td [°C] tt 5cm [°C] ff [km/h] ff [knt] fx [km/h] fx [knt] dd ppp [hPa] vv [km] rr [mm]
11.07.2020 23:00:00 23,6 6,8 22,6 39 21 62 34 NNW 1017,1 60 0,0
11.07.2020 22:00:00 24,1 6,4 23,0 29 16 53 29 NNW 1017,2 60 0,0
11.07.2020 21:00:00 25,4 7,5 24,9 34 19 67 36 NNW 1016,5 16 0,0
11.07.2020 20:00:00 26,7 9,1 28,1 35 19 74 40 NNW 1016,2 10 0,0
11.07.2020 19:00:00 27,7 10,0 31,1 37 20 68 37 N 1016,0 6 0,0
11.07.2020 18:00:00 28,1 9,9 32,8 44 24 67 36 N 1016,2 6 0,0
11.07.2020 17:00:00 28,7 10,8 34,4 42 23 72 39 N 1016,4 6 0,0
11.07.2020 16:00:00 28,5 11,5 33,4 44 24 68 37 N 1016,5 7 0,0
11.07.2020 15:00:00 28,4 12,3 33,8 46 25 77 41 NNW 1016,6 8 0,0
11.07.2020 14:00:00 27,3 12,5 32,9 44 24 74 40 NNW 1017,1 10 0,0
11.07.2020 13:00:00 27,0 13,7 30,3 45 24 73 39 N 1017,3 10 0,0
11.07.2020 12:00:00 25,3 13,2 28,4 48 26 76 41 N 1017,2 9 0,0
11.07.2020 11:00:00 24,5 13,7 26,7 46 25 76 41 N 1017,2 9 0,0
11.07.2020 10:00:00 23,6 14,0 23,3 43 23 76 41 N 1017,2 8 0,0
11.07.2020 09:00:00 22,6 14,4 22,4 42 23 67 36 N 1017,0 11 0,0
11.07.2020 08:00:00 21,4 15,0 20,7 38 20 57 31 NNW 1016,7 20 0,0
11.07.2020 07:00:00 20,7 14,8 20,0 37 20 57 31 NNW 1016,4 10 0,0
11.07.2020 06:00:00 20,7 14,1 19,9 27 15 53 29 NNW 1016,1 60 0,0
11.07.2020 05:00:00 20,9 14,5 20,3 33 18 55 30 NNW 1015,6 60 0,0
11.07.2020 04:00:00 21,4 14,5 20,7 35 19 58 31 NNW 1015,3 60 0,0
11.07.2020 03:00:00 21,9 17,1 21,3 31 17 50 27 N 1015,3 58 0,0
11.07.2020 02:00:00 22,3 18,1 21,7 29 15 48 26 N 1015,2 42 0,0
11.07.2020 01:00:00 22,5 18,7 22,2 28 15 45 24 N 1015,2 36 0,0
11.07.2020 00:00:00 22,9 18,9 22,5 26 14 40 22 N 1015,0 36 0,0
10.07.2020 23:00:00 23,0 18,5 22,5 24 13 35 19 N 1015,3 39 0,0
10.07.2020 22:00:00 24,6 19,7 23,0 6 3 16 9 E 1014,4 36 0,0
10.07.2020 21:00:00 27,5 18,8 24,7 10 5 15 8 ESE 1014,3 44 0,0
10.07.2020 20:00:00 28,2 18,3 28,1 12 6 41 22 S 1014,0 46 0,0
10.07.2020 19:00:00 30,3 19,3 30,6 18 10 37 20 SSW 1012,3 38 0,0
10.07.2020 18:00:00 34,6 14,5 35,4 13 7 23 13 S 1011,6 34 0,0
10.07.2020 17:00:00 35,1 14,4 41,9 7 4 15 8 W 1012,1 47 0,0
10.07.2020 16:00:00 35,3 14,0 44,3 5 3 13 7 WNW 1012,8 4,0 0,0
10.07.2020 15:00:00 33,2 14,3 41,8 4 2 14 7 S 1013,6 60 0,0
10.07.2020 14:00:00 32,2 14,8 40,6 4 2 14 8 S 1014,5 20 0,0
10.07.2020 13:00:00 30,2 14,7 33,1 3 2 16 9 S 1015,3 20 0,0
10.07.2020 12:00:00 28,2 14,4 32,7 10 6 18 10 SSE 1015,8 53 0,0
10.07.2020 11:00:00 27,1 16,4 30,6 3 2 13 7 SE 1016,0 20 0,0
10.07.2020 10:00:00 25,1 15,7 28,3 4 2 13 7 SSE 1016,3 28 0,0
10.07.2020 09:00:00 23,2 15,0 21,4 2 1 6 4 S 1016,4 51 0,0
10.07.2020 08:00:00 19,8 13,7 17,2 2 1 6 4 E 1016,2 42 0,0
10.07.2020 07:00:00 16,9 13,6 14,2 4 2 8 4 ESE 1016,1 55 0,0
10.07.2020 06:00:00 15,9 12,3 14,2 0 0 6 3 N 1016,0 42 0,0
10.07.2020 05:00:00 16,7 13,2 14,6 3 1 5 3 NNE 1015,6 14 0,0
10.07.2020 04:00:00 17,9 14,0 15,1 3 2 9 5 WNW 1015,4 41 0,0
10.07.2020 03:00:00 19,2 14,0 15,6 2 1 6 4 NNE 1015,9 49 0,0
10.07.2020 02:00:00 19,4 14,9 16,6 5 3 12 7 ESE 1016,4 45 0,0
10.07.2020 01:00:00 20,2 15,6 17,8 6 3 11 6 ESE 1016,7 48 0,0
10.07.2020 00:00:00 21,8 14,9 20,0 7 4 14 8 SE 1016,5 59 0,0
09.07.2020 23:00:00 24,1 13,9 22,2 7 4 19 10 SSW 1016,4 60 0,0
09.07.2020 22:00:00 25,0 13,5 23,4 10 5 21 11 SSE 1015,7 60 0,0
09.07.2020 21:00:00 27,6 14,2 26,9 12 6 23 12 S 1015,0 59 0,0
09.07.2020 20:00:00 30,5 13,7 31,4 11 6 26 14 S 1014,4 31 0,0
09.07.2020 19:00:00 32,2 13,4 35,0 16 9 30 16 S 1014,2 39 0,0
09.07.2020 18:00:00 33,4 14,5 38,1 17 9 32 17 S 1014,4 44 0,0
09.07.2020 17:00:00 34,5 15,9 41,0 12 7 36 19 SSW 1014,5 50 0,0
09.07.2020 16:00:00 35,0 14,8 41,9 13 7 31 17 S 1015,0 59 0,0
09.07.2020 15:00:00 34,3 12,0 41,6 8 4 20 11 SW 1015,4 60 0,0
09.07.2020 14:00:00 32,4 13,6 39,6 12 6 21 12 SSE 1016,0 52 0,0
09.07.2020 13:00:00 30,4 13,7 36,5 8 4 16 9 SSW 1016,5 48 0,0
09.07.2020 12:00:00 28,7 13,8 32,9 7 4 15 8 SE 1016,9 21 0,0
09.07.2020 11:00:00 27,4 13,0 30,4 4 2 13 7 SSW 1017,4 50 0,0
09.07.2020 10:00:00 25,0 12,6 26,7 6 4 10 6 WSW 1017,2 28 0,0
09.07.2020 09:00:00 22,5 12,4 21,3 5 3 14 8 W 1017,0 22 0,0
09.07.2020 08:00:00 19,5 12,3 15,1 5 3 12 6 WNW 1017,0 17 0,0
09.07.2020 07:00:00 15,9 11,1 11,6 5 3 10 5 NNW 1016,6 17 0,0
09.07.2020 06:00:00 14,6 10,2 11,4 8 4 10 5 NNE 1017,0 47 0,0
09.07.2020 05:00:00 14,4 9,6 11,7 4 2 8 4 NE 1017,4 49 0,0
09.07.2020 04:00:00 15,3 10,1 12,1 4 2 8 4 NNE 1017,2 56 0,0
09.07.2020 03:00:00 16,8 11,3 13,5 4 2 9 5 E 1017,0 52 0,0
09.07.2020 02:00:00 18,6 11,4 15,2 4 2 14 8 SSE 1017,1 57 0,0
09.07.2020 01:00:00 20,2 11,4 18,4 13 7 19 10 SE 1017,3 56 0,0
09.07.2020 00:00:00 20,3 11,2 18,4 12 6 16 9 ESE 1016,8 53 0,0
08.07.2020 23:00:00 22,9 11,6 19,5 6 4 20 11 E 1016,4 59 0,0
08.07.2020 22:00:00 24,7 10,2 22,1 11 6 15 8 SW 1015,3 60 0,0
08.07.2020 21:00:00 28,9 6,3 27,1 9 5 23 13 NW 1014,8 59 0,0
08.07.2020 20:00:00 31,5 7,2 33,3 16 9 23 12 N 1014,6 59 0,0
08.07.2020 19:00:00 32,9 8,4 38,2 13 7 21 11 NNW 1014,7 57 0,0
08.07.2020 18:00:00 33,6 1,4 40,2 13 7 30 16 NW 1015,0 45 0,0
08.07.2020 17:00:00 33,0 9,1 40,4 13 7 33 18 WNW 1015,5 41 0,0
08.07.2020 16:00:00 32,6 10,6 40,4 11 6 26 14 WNW 1015,7 48 0,0
08.07.2020 15:00:00 32,2 10,8 42,2 9 5 25 13 WNW 1016,0 29 0,0
08.07.2020 14:00:00 31,6 11,9 40,2 12 7 21 11 WNW 1016,4 41 0,0
08.07.2020 13:00:00 30,1 10,1 38,4 14 7 28 15 NW 1016,6 20 0,0
08.07.2020 12:00:00 29,3 11,4 32,9 16 8 29 16 N 1016,7 35 0,0
08.07.2020 11:00:00 27,2 10,0 30,8 21 11 32 17 N 1016,7 20 0,0
08.07.2020 10:00:00 25,5 9,7 27,0 20 11 36 20 N 1016,6 25 0,0
08.07.2020 09:00:00 23,6 8,4 24,1 23 12 35 19 N 1016,5 17 0,0
08.07.2020 08:00:00 22,4 8,1 20,1 14 8 32 17 N 1016,2 16 0,0
08.07.2020 07:00:00 20,6 7,6 18,8 16 9 26 14 N 1016,1 14 0,0
08.07.2020 06:00:00 20,4 7,0 16,6 18 10 27 15 N 1015,7 60 0,0
08.07.2020 05:00:00 18,7 6,8 16,1 11 6 21 11 NNW 1015,6 60 0,0
08.07.2020 04:00:00 20,3 6,6 18,4 16 9 25 14 NNW 1015,8 60 0,0
08.07.2020 03:00:00 20,5 6,4 18,0 16 9 26 14 NW 1015,8 60 0,0
08.07.2020 02:00:00 21,5 6,6 19,1 14 8 28 15 NW 1015,9 60 0,0
08.07.2020 01:00:00 22,3 6,1 20,4 17 9 36 20 NNW 1015,8 60 0,0
08.07.2020 00:00:00 23,1 6,4 21,8 23 13 50 27 NNW 1015,4 60 0,0
07.07.2020 23:00:00 23,9 6,2 22,8 32 17 48 26 N 1015,1 60 0,0
07.07.2020 22:00:00 24,5 6,3 23,1 26 14 42 23 N 1015,0 60 0,0
07.07.2020 21:00:00 25,6 6,7 25,1 25 14 48 26 NNW 1014,5 45 0,0
07.07.2020 20:00:00 27,2 7,6 28,5 34 19 53 28 NNW 1014,3 20 0,0
07.07.2020 19:00:00 28,6 8,3 31,5 32 17 47 25 NNW 1014,2 13 0,0
07.07.2020 18:00:00 29,3 8,4 34,9 28 15 50 27 N 1014,0 13 0,0
07.07.2020 17:00:00 29,5 8,0 36,1 34 18 53 28 N 1014,2 11 0,0
07.07.2020 16:00:00 29,2 8,3 35,9 39 21 58 31 NNW 1014,3 11 0,0
07.07.2020 15:00:00 28,5 7,7 35,3 38 20 67 36 N 1014,2 9 0,0
07.07.2020 14:00:00 27,8 8,1 33,0 40 22 65 35 N 1014,3 8 0,0
07.07.2020 13:00:00 26,4 7,4 29,6 46 25 72 39 N 1014,4 7 0,0
07.07.2020 12:00:00 24,2 6,9 26,7 53 29 84 45 N 1014,8 7 0,0
07.07.2020 11:00:00 23,2 6,9 25,6 47 25 77 42 N 1014,7 6 0,0
07.07.2020 10:00:00 21,7 7,1 22,9 49 26 79 43 N 1014,3 4,4 0,0
07.07.2020 09:00:00 19,8 6,9 19,8 45 24 78 42 N 1014,9 4,5 0,0
07.07.2020 08:00:00 18,6 6,1 17,9 53 29 83 45 NNW 1014,3 2,9 0,0
07.07.2020 07:00:00 18,0 5,9 17,0 44 24 73 39 N 1014,5 4,1 0,0
07.07.2020 06:00:00 18,1 5,6 17,1 32 17 69 38 N 1014,0 56 0,0
07.07.2020 05:00:00 18,9 5,7 18,0 51 28 76 41 NNW 1013,7 57 0,0
07.07.2020 04:00:00 19,1 5,9 18,4 48 26 79 42 NNW 1014,2 60 0,0
07.07.2020 03:00:00 19,6 6,3 18,7 42 23 74 40 N 1014,9 59 0,0
07.07.2020 02:00:00 20,5 6,4 19,7 46 25 79 42 NNW 1015,4 59 0,0
07.07.2020 01:00:00 21,2 6,3 20,2 39 21 68 37 N 1015,4 59 0,0
07.07.2020 00:00:00 21,8 6,1 20,8 39 21 63 34 NNW 1015,5 60 0,0
06.07.2020 23:00:00 22,7 5,1 21,8 41 22 74 40 NNW 1015,7 60 0,0
06.07.2020 22:00:00 23,6 5,5 22,6 38 20 68 37 NNW 1015,2 60 0,0
06.07.2020 21:00:00 25,0 6,2 24,7 44 24 75 40 N 1014,7 20 0,0
06.07.2020 20:00:00 26,6 5,5 27,5 44 24 74 40 N 1014,4 20 0,0
06.07.2020 19:00:00 27,4 6,7 29,1 48 26 82 44 N 1014,0 20 0,0
06.07.2020 18:00:00 28,5 8,7 33,0 49 26 75 41 N 1014,0 20 0,0
06.07.2020 17:00:00 28,7 11,3 33,6 45 25 77 42 N 1014,2 20 0,0
06.07.2020 16:00:00 29,1 12,5 35,4 49 26 76 41 N 1014,1 20 0,0
06.07.2020 15:00:00 29,3 14,3 35,7 43 23 69 37 N 1014,0 20 0,0
06.07.2020 14:00:00 29,3 15,4 35,1 42 23 70 38 N 1014,1 20 0,0
06.07.2020 13:00:00 29,2 15,3 34,1 42 23 67 36 N 1014,3 20 0,0
06.07.2020 12:00:00 28,6 15,2 31,1 42 23 68 37 N 1014,7 20 0,0
06.07.2020 11:00:00 28,0 15,0 29,4 45 24 72 39 NNW 1015,1 20 0,0
06.07.2020 10:00:00 26,5 15,5 27,9 42 23 69 37 N 1014,9 20 0,0
06.07.2020 09:00:00 25,1 16,0 25,2 44 24 75 41 N 1014,9 20 0,0
06.07.2020 08:00:00 24,2 16,2 23,5 42 23 72 39 N 1014,4 2,1 0,0
06.07.2020 07:00:00 23,6 15,9 22,2 39 21 66 36 N 1014,1 2,5 0,0
06.07.2020 06:00:00 23,2 16,0 22,2 26 14 43 23 NNW 1014,3 60 0,0
06.07.2020 05:00:00 23,7 15,7 22,5 26 14 45 24 NNW 1014,0 60 0,0
06.07.2020 04:00:00 24,2 15,7 22,9 25 13 40 22 NNW 1014,4 60 0,0
06.07.2020 03:00:00 24,6 15,2 23,4 25 13 37 20 NNW 1015,2 60 0,0
06.07.2020 02:00:00 25,2 15,2 23,9 22 12 36 19 NNW 1015,4 60 0,0
06.07.2020 01:00:00 26,0 15,1 24,6 23 12 38 21 NNW 1015,3 60 0,0
06.07.2020 00:00:00 26,6 15,3 24,9 21 11 33 18 NNW 1015,0 60 0,0
05.07.2020 23:00:00 27,1 15,5 25,7 20 11 34 19 NNW 1015,0 60 0,0

tt = Température de l'air
td = dewpoint
tt 5cm = Température de l'air 5cm
ff = Vitesse du vent
fx = gusts
dd = Direction du vent
ppp = reduced air pressure
vv = visibility
rr = Quantités de précipitations

stations d'obs. à proximité